Flag for Italy Weather past 2 weeks in Trieste, Italy

Now
68 °F

Overcast.


Feels Like: 68 °F
Forecast: 60 / 75 °F
Wind: 2 mph from Northwest

Location: Trieste

Current Time: Oct 1, 2014 at 6:41:02 PM

Latest Report: Oct 1, 2014 at 6:00 PM


Visibility: 2 mi

Pressure: 30.19 "Hg

Humidity: 87%

Dew point: 64 °F

Location of TriesteLocation

Historic Weather in Trieste — Graph

°F

Trieste temperature yesterday

Maximum temperature yesterday: 72 °F (at 3:00 PM)
Minimum temperature yesterday: 60 °F (at 2:00 AM)
Average temperature yesterday: 66 °F

Past Weeks' High & Low Weather Summary

 TemperatureHumidityPressure
High78 °F (Sep 22, 4:00 PM)97% (Sep 20, 12:00 AM)30.37 "Hg (Sep 20, 12:00 AM)
Low54 °F (Sep 23, 6:00 AM)37% (Sep 23, 6:00 PM)29.73 "Hg (Sep 22, 5:00 PM)
Average66 °F73%30.10 "Hg
* Reported Sep 16 5:00 PM — Oct 1 5:00 PM, Trieste, Weather by CustomWeather, © 2014

Note: Actual official high and low records may vary slightly from our data, if they occured in-between our weather recording intervals... More about our weather records

Advertising

Trieste weather history for previous 24 hours

 ConditionsComfort  
Time TempWeatherWind HumidityBarometerVisibility
5:00 PM
Oct 1
68 °FDrizzle. Overcast.3 mph87%30.20 "Hg6 mi
4:00 PM69 °FOvercast.3 mph80%30.20 "Hg6 mi
3:00 PM70 °FOvercast.5 mph73%30.21 "Hg6 mi
2:00 PM69 °FOvercast.3 mph74%30.22 "Hg6 mi
1:00 PM70 °FOvercast.5 mph74%30.23 "Hg6 mi
12:00 PM68 °FFog.2 mph78%30.23 "Hg2 mi
11:00 AM67 °FFog.No wind80%30.23 "Hg2 mi
10:00 AM67 °FFog.2 mph81%30.22 "Hg2 mi
9:00 AM64 °FFog.No wind87%30.23 "Hg2 mi
8:00 AM63 °FOvercast.3 mph93%30.23 "Hg6 mi
7:00 AM62 °FOvercast.1 mph92%30.23 "Hg6 mi
6:00 AM63 °FOvercast.1 mph90%30.24 "Hg6 mi
5:00 AM63 °FOvercast.2 mph96%30.25 "Hg6 mi
4:00 AM62 °FOvercast.2 mph92%30.25 "Hg6 mi
3:00 AM62 °FOvercast.2 mph94%30.26 "Hg6 mi
2:00 AM62 °FPassing clouds.2 mph92%30.26 "Hg6 mi
1:00 AM62 °FClear.2 mph89%30.26 "Hg6 mi
12:00 AM63 °FClear.1 mph87%30.27 "Hg6 mi
11:00 PM
Sep 30
63 °FClear.1 mph87%30.27 "Hg6 mi
10:00 PM63 °FPassing clouds.1 mph85%30.28 "Hg6 mi
9:00 PM63 °FPassing clouds.2 mph83%30.28 "Hg6 mi
8:00 PM64 °FPassing clouds.3 mph86%30.28 "Hg6 mi
7:00 PM67 °FPassing clouds.1 mph82%30.27 "Hg6 mi
6:00 PM69 °FSunny.1 mph74%30.27 "Hg6 mi
Weather by CustomWeather, © 2014

See weather overviewHow to use our weather pages